Regional Weather Roundup
Issued by NWS New Orleans/Baton Rouge, LA

Home | Current Version | Previous Version | Text Only | Print | Product List | Glossary Off
Versions: 1 2 3 4 5 6 7 8 9 10 11 12 13 14 15 16 17 18 19 20 21 22 23 24 25 26 27 28 29 30 31 32 33 34 35 36 37 38 39 40 41 42 43 44 45 46 47 48 49 50

592
ASUS44 KLIX 190201
RWRLIX
NEW ORLEANS REGIONAL WEATHER ROUNDUP
NATIONAL WEATHER SERVICE NEW ORLEANS LA
900 PM CDT THU SEP 18 2014

NOTE: "FAIR" INDICATES FEW OR NO CLOUDS BELOW 12,000 FEET WITH NO
      SIGNIFICANT WEATHER AND/OR OBSTRUCTIONS TO VISIBILITY.
      SKY/WX - SKY CONDITION AND SIGNIFICANT WEATHER.
      TMP - AIR TEMPERATURE.     DP    - DEWPOINT TEMPERATURE.
      RH  - RELATIVE HUMIDITY.   PRES  - PRESSURE.
      HI  - HEAT INDEX.          WCI   - WIND CHILL INDEX.

*  THESE STATIONS ARE NOT NWS OR FAA STATIONS AND ARE NOT UNDER
   NWS QUALITY CONTROL.

LAZ038-040-048-061>063-065>067-069-190300-
SOUTHEAST LOUISIANA

CITY           SKY/WX    TMP DP  RH WIND       PRES   REMARKS
N.O. AUDUBON     N/A     82  70  67 MISG        N/A
N.O. INTL ARPT CLOUDY    80  68  66 CALM      29.91R
N.O. LAKEFRONT CLOUDY    79  71  76 S6        29.92R
N.O. DOWNTOWN*   N/A     81  64  57 CALM      29.92R
SLIDELL        CLOUDY    78  70  76 E8        29.93R
BATON ROUGE    LGT RAIN  72  70  93 W3        29.91R
BOOTHVILLE     LGT RAIN  80  75  84 SW5       29.93R
BELLE CHASSE   CLOUDY    75  70  84 CALM      29.91R
BOGALUSA*        N/A     78  68  72 E8        29.94S
GALLIANO*      NOT AVBL
NEW ROADS*     LGT RAIN  71  69  92 CALM      29.93R
GONZALES*      CLOUDY    73  73 100 CALM      29.92R
HAMMOND*       NOT AVBL
HOUMA*         LGT RAIN  74  68  82 CALM      29.92R
PORT FOURCHON* MOCLDY    81  73  78 CALM      29.94R

$$

MSZ070-080>082-190300-
SOUTHERN MISSISSIPPI

CITY           SKY/WX    TMP DP  RH WIND       PRES   REMARKS
MCCOMB         CLOUDY    79  74  84 NE3       29.93R
GULFPORT       LGT RAIN  73  70  90 CALM      29.93S
BILOXI         LGT RAIN  73  72  95 NW1       29.93R
PASCAGOULA     CLOUDY    73  70  90 CALM      29.92R
STENNIS ARPT*  RAIN      72  64  78 E9        29.93R

$$

COASTAL OBSERVATIONS
LAKE AND NEARSHORE STATIONS

STATION/POSITION TIME  TEMP    WIND        PRES    WAVE
                       AIR SEA DIR/SP/G            HT/PER
                 (UTC) (F)     (DEG/KT/KT) (MB)    (FT/S)
PASCAGOULA       0100   75     360/  6/  7 1012.7
WAVELAND YACHT   0100   73      90/  7/ 11 1013.3
GRAND ISLE       0100   80 87  250/  6/  8 1013.2
SOUTHWEST PASS   0100   82 91  250/  8/  9 1013.1
NEW CANAL        0100   81 83  140/  2/  4 1013.0
SHELL BEACH      0100   80 82   CALM  /  1 1012.7

OFFSHORE STATIONS

STATION/POSITION TIME  TEMP    WIND        PRES    WAVE
                       AIR SEA DIR/SP/G            HT/PER
                 (UTC) (F)     (DEG/KT/KT) (MB)    (FT/S)
64 S DAUPHIN ISL 0113   83 85  120/  4/  4 1013.6    1

$$




USA.gov is the U.S. government's official web portal to all federal, state and local government web resources and services.